Location: Sungai Bunut
(2.6333°N, 113.7333°E)
Time: 19:24:46
(UTC+00:00)

Meteor 1-22 Rocket - Pass Details

Date: 16 October 2021
Orbit: 787 x 941 km, 81.2° (Epoch: 07 December)

Event Time Altitude Azimuth Distance (km) Brightness Sun altitude
Rises 21:23:43 0° 350° (N) 3,480 7.2 -12.0°
Reaches altitude 10° 21:26:13 10° 347° (NNW) 2,519 6.5 -11.3°
Maximum altitude 21:31:53 67° 266° (W) 917 4.2 -9.9°
Drops below altitude 10° 21:37:20 10° 183° (S) 2,425 6.7 -8.6°
Sets 21:39:42 0° 181° (S) 3,339 7.4 -8.0°
